Location: Newark
(15.4608°S, 41.1635°W)
Time: 14:44:43
(UTC+00:00)

Envisat - Pass Details

Date: 20 June 2021
Orbit: 764 x 766 km, 98.1° (Epoch: 25 July)

Event Time Altitude Azimuth Distance (km) Brightness Sun altitude
Rises 07:42:00 0° 8° (N) 3,209 6.6 -20.5°
Reaches altitude 10° 07:44:18 10° 6° (N) 2,289 5.8 -20.0°
Maximum altitude 07:49:20 73° 281° (WNW) 800 2.9 -18.9°
Enters shadow 07:53:29 16° 198° (SSW) 1,947 4.7 -17.9°
